Showing default

HERMES-3, 63835

Orbit data source: Space-Track

HERMES-3, 63835 is a payload satellite owned by ASI (IT) in SSO that was launched on Sat, 15 Mar 2025 UTC via an FALCON 9 launch vehicle from the Air Force Western Test Range (AFWTR). Payload-class satellites include a variety of spacecraft equipped with specific instruments for various scientific and technological missions. These include communications satellites like Starlink; space stations such as the ISS; scientific satellites like the Hubble; Earth observation satellites from companies like Planet Labs, Umbra, and HawkEye 360; GPS; miniature CubeSats for education and research; and military/defense satellites.

Loading next visibility...
Identifier
63835, 2025-052BR
Orbit
SSO
Country
Flag of ITIT
Related business
Manufacturer
MILANP/INAFI
Mission
Operational Civil Astronomy
Bus & Motor
CUBESAT 3U, Unknown motor
Mass
5 kg wet, 5 kg dry
Launch date (UTC)
2025-03-15 (7 months ago)
Launch vehicle
FALCON 9
Launch site
Air Force Western Test Range (AFWTR)
Object type
Payload
Rocket body
Debris
Shape & HBR
Box, 0.2 m
Radar Cross Section
0.035 m², Small (<0.1 m²)

Expand to show TLE details & history
Last TLE update: 12 hours ago

TLE from 12 hours ago
0 HERMES-3
1 63835U 25052BR  25298.66280966  .00025495  00000-0  10729-2 0  9994
2 63835  97.4106 190.4143 0004261 232.5442 127.5407 15.23355753 34227
Epoch: 2025-10-25T15:54Z
TLE epoch observation values (Epoch: 2025-10-25T15:54:26.754Z)
Latitude
-0.0001°
Longitude
-82.4873°
Altitude
500.608 km
Speed
7.613 km/s
True Right ascension
12h 41m 39s
True Declination
0° 00' 00"
Sunlit
Object was in daylight at epoch
Visualization orbit readout
Latitude
Unknown
Longitude
Unknown
Altitude
Unknown
Speed
Unknown
Apparent Right ascension
Unknown
Apparent Declination
Unknown
Sunlit
N/A
Visualization observer readout
Local Sidereal Time
23:07:56
Azimuth
Unknown
Elevation
Unknown
Doppler factor
Unknown
Orbital elements
Apogee altitude
495.616 km
Perigee altitude
489.761 km
Semi-major axis
6,870.826 km
Eccentricity
0.00043
Inclination
97.4106°
RAAN
190.4143°
Arg. of periapsis
232.5442°
True anomaly
127.5794°
Mean anomaly
127.5407°
Eccentric anomaly
127.56005°
Mean motion
3.81092 °/min
Orbital period
94.47 mins
BSTAR
0.0010729
Loading maneuver chart data...
Computing Atmospheric mass density...
Loading historical data...
Loading historical data...
Loading historical data...
Loading historical data...
Loading historical data...
Loading historical data...
Loading historical data...

Documentation

Showing up to 5 results
|